EW5196 Weather Reports


Display with metric or nautical units.
time (UTC)temp
F
wind
direction
speed
MPH
gust
MPH
rain 1hr
in
rain 24hr
in
rain mn
in
humidity
%
barometer
mb
20260831151654 86 193 2.0 4.0 0.00 0.00 0.00 67 1021.2
20260831151148 86 283 1.0 2.0 0.00 0.00 0.00 68 1021.3
20260831150644 86 245 3.0 4.0 0.00 0.00 0.00 68 1021.3
20260831150139 85 247 0.0 2.0 0.00 0.00 0.00 71 1021.1
20260831145638 84 167 0.0 1.0 0.00 0.00 0.00 72 1021.0
20260831145135 84 299 0.0 3.0 0.00 0.00 0.00 71 1021.2
20260831144631 84 268 1.0 3.0 0.00 0.00 0.00 71 1021.3
20260831144126 84 143 0.0 3.0 0.00 0.00 0.00 71 1021.0
20260831143625 84 259 0.0 3.0 0.00 0.00 0.00 72 1021.1
20260831143121 85 80 0.0 3.0 0.00 0.00 0.00 70 1021.0
20260831142618 85 177 0.0 1.0 0.00 0.00 0.00 70 1021.2
20260831142113 85 211 1.0 3.0 0.00 0.00 0.00 69 1021.2
20260831141611 84 212 1.0 3.0 0.00 0.00 0.00 71 1021.1
20260831141107 84 261 2.0 3.0 0.00 0.00 0.00 72 1021.3
20260831140606 83 237 2.0 2.0 0.00 0.00 0.00 74 1021.4
20260831140101 82 282 3.0 3.0 0.00 0.00 0.00 74 1021.1
20260831135558 81 286 1.0 3.0 0.00 0.00 0.00 77 1021.3
20260831135055 80 75 0.0 4.0 0.00 0.00 0.00 78 1021.2
20260831134550 80 201 2.0 3.0 0.00 0.00 0.00 79 1021.2
20260831134045 80 101 2.0 4.0 0.00 0.00 0.00 78 1021.3
20260831133544 80 164 0.0 3.0 0.00 0.00 0.00 80 1021.1
20260831133039 79 231 2.0 3.0 0.00 0.00 0.00 81 1021.4
20260831132536 79 192 1.0 2.0 0.00 0.00 0.00 82 1021.3
20260831132034 78 166 0.0 2.0 0.00 0.00 0.00 82 1021.1
20260831131529 78 139 1.0 3.0 0.00 0.00 0.00 84 1021.2
20260831131025 78 119 0.0 2.0 0.00 0.00 0.00 84 1021.1
20260831130520 78 111 0.0 2.0 0.00 0.00 0.00 84 1021.2
20260831130016 78 78 0.0 2.0 0.00 0.00 0.00 84 1021.1
20260831125509 78 206 0.0 2.0 0.00 0.00 0.00 84 1021.2
20260831125004 77 159 0.0 1.0 0.00 0.00 0.00 85 1021.4
20260831124501 77 139 1.0 3.0 0.00 0.00 0.00 85 1021.4
20260831123956 78 168 1.0 3.0 0.00 0.00 0.00 86 1021.2
20260831123455 77 199 1.0 2.0 0.00 0.00 0.00 85 1021.3
20260831122949 77 207 1.0 2.0 0.00 0.00 0.00 86 1021.2
20260831122445 77 149 1.0 3.0 0.00 0.00 0.00 87 1021.2
20260831121940 76 199 0.0 1.0 0.00 0.00 0.00 88 1021.2
20260831121436 75 161 1.0 2.0 0.00 0.00 0.00 90 1021.2
20260831120931 74 188 1.0 1.0 0.00 0.00 0.00 93 1021.0
20260831120426 73 216 0.0 1.0 0.00 0.00 0.00 96 1020.9
20260831115926 73 168 1.0 1.0 0.00 0.00 0.00 97 1020.6
20260831115422 72 67 0.0 1.0 0.00 0.00 0.00 98 1020.8
20260831114921 72 172 0.0 0.0 0.00 0.00 0.00 98 1020.9
20260831114420 71 164 0.0 1.0 0.00 0.00 0.00 98 1020.9
20260831113916 71 154 0.0 1.0 0.00 0.00 0.00 98 1021.1
20260831113411 71 159 0.0 0.0 0.00 0.00 0.00 98 1020.7
20260831112906 71 139 2.0 2.0 0.00 0.00 0.00 98 1020.9
20260831112406 71 119 0.0 1.0 0.00 0.00 0.00 98 1020.7
20260831111901 71 193 0.0 0.0 0.00 0.00 0.00 98 1020.6
20260831111357 71 147 0.0 1.0 0.00 0.00 0.00 98 1020.6
20260831110852 71 92 0.0 1.0 0.00 0.00 0.00 98 1020.8
20260831110346 71 141 1.0 2.0 0.00 0.00 0.00 98 1020.5
20260831105845 71 159 0.0 1.0 0.00 0.00 0.00 97 1020.4
20260831105341 71 119 0.0 1.0 0.00 0.00 0.00 97 1020.6
20260831104836 71 166 1.0 2.0 0.00 0.00 0.00 97 1020.5
20260831104332 71 80 0.0 1.0 0.00 0.00 0.00 97 1020.5
20260831103832 71 164 0.0 2.0 0.00 0.00 0.00 97 1020.6
20260831103328 71 163 0.0 1.0 0.00 0.00 0.00 97 1020.4
20260831102828 71 172 1.0 2.0 0.00 0.00 0.00 97 1020.6
20260831102323 71 166 1.0 1.0 0.00 0.00 0.00 97 1020.8
20260831101820 71 149 0.0 1.0 0.00 0.00 0.00 97 1020.4
20260831101314 71 201 0.0 2.0 0.00 0.00 0.00 97 1020.3
20260831100810 71 162 2.0 2.0 0.00 0.00 0.00 96 1020.4
20260831100306 71 140 1.0 2.0 0.00 0.00 0.00 96 1020.4
20260831095805 72 144 0.0 1.0 0.00 0.00 0.00 96 1020.2
20260831095300 72 119 0.0 1.0 0.00 0.00 0.00 96 1020.2
20260831094755 72 142 1.0 1.0 0.00 0.00 0.00 96 1020.2
20260831094250 72 115 0.0 0.0 0.00 0.00 0.00 96 1020.2
20260831093747 72 150 1.0 2.0 0.00 0.00 0.00 95 1020.2
20260831093246 72 162 1.0 2.0 0.00 0.00 0.00 95 1020.2
20260831092743 72 172 0.0 0.0 0.00 0.00 0.00 95 1020.2
20260831092238 72 92 0.0 0.0 0.00 0.00 0.00 95 1020.2
20260831091737 72 79 0.0 0.0 0.00 0.00 0.00 95 1020.2
20260831091234 72 153 1.0 1.0 0.00 0.00 0.00 95 1020.1
20260831090729 72 172 1.0 2.0 0.00 0.00 0.00 95 1020.0
20260831090225 72 146 0.0 2.0 0.00 0.00 0.00 94 1020.3
20260831085721 73 141 1.0 1.0 0.00 0.00 0.00 95 1020.2
20260831085215 73 149 0.0 1.0 0.00 0.00 0.00 95 1020.1
20260831084710 73 143 0.0 1.0 0.00 0.00 0.00 95 1020.0
20260831084207 73 147 0.0 1.0 0.00 0.00 0.00 94 1020.3
20260831083703 73 151 0.0 1.0 0.00 0.00 0.00 94 1020.0
20260831083158 73 147 0.0 1.0 0.00 0.00 0.00 93 1020.2
20260831082656 73 147 0.0 1.0 0.00 0.00 0.00 93 1020.3
20260831082152 73 172 0.0 1.0 0.00 0.00 0.00 93 1020.1
20260831081647 73 147 0.0 0.0 0.00 0.00 0.00 93 1020.2
20260831081143 73 133 0.0 1.0 0.00 0.00 0.00 93 1020.1
20260831080638 73 115 0.0 1.0 0.00 0.00 0.00 94 1020.2
20260831080127 72 139 1.0 2.0 0.00 0.00 0.00 94 1020.1
20260831075624 72 80 0.0 1.0 0.00 0.00 0.00 95 1020.1
20260831075119 72 169 0.0 2.0 0.00 0.00 0.00 95 1020.2
20260831074618 72 151 0.0 0.0 0.00 0.00 0.00 95 1020.2
20260831074113 72 149 0.0 1.0 0.00 0.00 0.00 95 1020.2
20260831073608 72 157 0.0 1.0 0.00 0.00 0.00 94 1020.2
20260831073107 72 136 1.0 1.0 0.00 0.00 0.00 95 1020.2
20260831072602 72 141 1.0 2.0 0.00 0.00 0.00 95 1020.1
20260831072059 72 167 0.0 2.0 0.00 0.00 0.00 95 1020.4
20260831071557 72 159 0.0 1.0 0.00 0.00 0.00 95 1020.3
20260831071053 72 45 0.0 0.0 0.00 0.00 0.00 95 1020.2
20260831070551 72 154 0.0 1.0 0.00 0.00 0.00 95 1020.2
20260831070046 73 159 0.0 2.0 0.00 0.00 0.00 95 1020.6
20260831065544 73 146 0.0 2.0 0.00 0.00 0.00 95 1020.3
20260831065039 73 138 2.0 2.0 0.00 0.00 0.00 95 1020.5
20260831064534 73 92 0.0 1.0 0.00 0.00 0.00 95 1020.3
20260831064029 73 80 0.0 0.0 0.00 0.00 0.00 95 1020.5
20260831063525 73 159 0.0 1.0 0.00 0.00 0.00 95 1020.5
20260831063020 73 129 0.0 2.0 0.00 0.00 0.00 95 1020.6
20260831062514 73 150 1.0 1.0 0.00 0.00 0.00 95 1020.6
20260831062014 73 140 1.0 2.0 0.00 0.00 0.00 95 1020.5
20260831061512 73 146 1.0 2.0 0.00 0.00 0.00 95 1020.4
20260831061008 73 156 1.0 1.0 0.00 0.00 0.00 95 1020.3
20260831060503 73 74 0.0 1.0 0.00 0.00 0.00 95 1020.6
20260831060002 73 85 0.0 1.0 0.00 0.00 0.00 96 1020.6
20260831055457 73 154 0.0 1.0 0.00 0.00 0.00 95 1020.6
20260831054954 73 136 1.0 2.0 0.00 0.00 0.00 95 1020.8
20260831054453 73 148 2.0 2.0 0.00 0.00 0.00 95 1020.7
20260831053953 73 143 0.0 1.0 0.00 0.00 0.00 95 1020.9
20260831053451 73 128 0.0 2.0 0.00 0.00 0.00 95 1020.8
20260831052945 73 143 1.0 2.0 0.00 0.00 0.00 95 1020.9
20260831052439 73 144 1.0 2.0 0.00 0.00 0.00 95 1020.8
20260831051938 73 136 1.0 2.0 0.00 0.00 0.00 94 1020.8
20260831051437 74 146 0.0 1.0 0.00 0.00 0.00 94 1020.9
20260831050932 74 147 1.0 2.0 0.00 0.00 0.00 93 1020.7
20260831050431 74 147 0.0 0.0 0.00 0.00 0.00 93 1020.8
20260831045930 74 147 0.0 0.0 0.00 0.00 0.00 93 1021.0
20260831045429 74 147 0.0 1.0 0.00 0.00 0.00 93 1021.1
20260831044924 74 138 0.0 1.0 0.00 0.00 0.00 92 1021.0
20260831044420 74 157 0.0 0.0 0.00 0.00 0.00 92 1020.9
20260831043915 74 149 0.0 1.0 0.00 0.00 0.00 92 1020.8
20260831043415 74 143 0.0 1.0 0.00 0.00 0.00 92 1021.1
20260831042911 74 125 1.0 2.0 0.00 0.00 0.00 92 1021.0
20260831042410 74 159 0.0 1.0 0.00 0.00 0.00 93 1021.0
20260831041905 74 133 0.0 1.0 0.00 0.00 0.00 93 1021.2
20260831041404 75 162 0.0 1.0 0.00 0.00 0.00 93 1021.3
20260831040859 75 154 0.0 0.0 0.00 0.00 0.00 93 1021.0
20260831040354 75 160 0.0 1.0 0.00 0.00 0.00 93 1021.1
20260831035852 75 119 0.0 0.0 0.00 0.00 0.00 92 1021.2
20260831035351 75 184 0.0 2.0 0.00 0.00 0.00 92 1021.1
20260831034846 75 152 1.0 2.0 0.00 0.00 0.00 91 1021.1
20260831034341 76 140 1.0 2.0 0.00 0.00 0.00 90 1021.1
20260831033836 75 194 0.0 0.0 0.00 0.00 0.00 90 1021.0
20260831033336 76 194 0.0 1.0 0.00 0.00 0.00 90 1021.2
20260831032831 76 184 0.0 1.0 0.00 0.00 0.00 90 1021.0
20260831032325 76 194 0.0 0.0 0.00 0.00 0.00 90 1021.2
20260831031821 75 165 0.0 0.0 0.00 0.00 0.00 90 1021.2
20260831031320 75 165 0.0 0.0 0.00 0.00 0.00 90 1021.3
20260831030816 75 171 0.0 1.0 0.00 0.00 0.00 90 1021.3
20260831030314 75 143 0.0 1.0 0.00 0.00 0.00 90 1021.4
20260831025808 75 147 0.0 1.0 0.00 0.00 0.00 90 1021.2
20260831025306 75 175 1.0 2.0 0.00 0.00 0.00 91 1021.4
20260831024758 75 160 0.0 2.0 0.00 0.00 0.00 92 1021.2
20260831024257 75 179 0.0 1.0 0.00 0.00 0.00 92 1021.3
20260831023756 75 160 0.0 1.0 0.00 0.00 0.00 92 1021.4
20260831023254 75 172 0.0 0.0 0.00 0.00 0.00 92 1021.2
20260831022750 75 152 1.0 1.0 0.00 0.00 0.00 92 1021.2
20260831022249 75 101 0.0 2.0 0.00 0.00 0.00 92 1021.2
20260831021744 75 131 1.0 2.0 0.00 0.00 0.00 92 1021.3
20260831021243 75 172 0.0 2.0 0.00 0.00 0.00 92 1021.4
20260831020740 75 91 0.0 1.0 0.00 0.00 0.00 91 1021.2
20260831020239 75 147 0.0 0.0 0.00 0.00 0.00 91 1021.1
20260831015735 75 147 0.0 1.0 0.00 0.00 0.00 91 1021.2
20260831015230 75 154 0.0 1.0 0.00 0.00 0.00 91 1021.2
20260831014725 75 161 0.0 1.0 0.00 0.00 0.00 91 1021.3
20260831014220 75 163 1.0 2.0 0.00 0.00 0.00 91 1021.3
20260831013717 75 148 0.0 1.0 0.00 0.00 0.00 91 1021.4
20260831013215 76 150 0.0 1.0 0.00 0.00 0.00 91 1021.1
20260831012711 76 172 0.0 1.0 0.00 0.00 0.00 91 1021.1
20260831012206 76 159 1.0 2.0 0.00 0.00 0.00 90 1021.3
20260831011705 76 154 0.0 1.0 0.00 0.00 0.00 89 1021.4
20260831011201 76 184 0.0 1.0 0.00 0.00 0.00 89 1021.3
20260831010657 76 159 0.0 1.0 0.00 0.00 0.00 89 1021.4
20260831010152 76 166 1.0 2.0 0.00 0.00 0.00 89 1021.4
20260831005651 77 184 0.0 1.0 0.00 0.00 0.00 88 1021.1
20260831005147 77 176 0.0 1.0 0.00 0.00 0.00 88 1021.1
20260831004642 77 156 0.0 1.0 0.00 0.00 0.00 88 1020.8
20260831004138 77 152 0.0 1.0 0.00 0.00 0.00 88 1020.9
20260831003634 77 162 1.0 1.0 0.00 0.00 0.00 87 1020.7
20260831003130 77 156 1.0 1.0 0.00 0.00 0.00 86 1020.6
20260831002628 78 149 1.0 2.0 0.00 0.00 0.00 86 1020.7
20260831002124 78 160 1.0 2.0 0.00 0.00 0.00 85 1020.3
20260831001619 78 171 0.0 0.0 0.00 0.00 0.00 84 1020.5
20260831001115 79 184 0.0 0.0 0.00 0.00 0.00 83 1020.4
20260831000612 79 154 0.0 1.0 0.00 0.00 0.00 83 1020.4
20260831000111 79 152 0.0 1.0 0.00 0.00 0.00 82 1020.3
20260830235610 80 165 1.0 2.0 0.00 0.00 0.00 80 1020.4
20260830235105 80 170 0.0 1.0 0.00 0.00 0.00 81 1020.3
20260830234600 81 177 1.0 1.0 0.00 0.00 0.00 80 1020.3
20260830234055 82 174 0.0 0.0 0.00 0.00 0.00 78 1020.2
20260830233550 82 209 0.0 1.0 0.00 0.00 0.00 77 1020.3
20260830233046 82 177 0.0 1.0 0.00 0.00 0.00 77 1020.6
20260830232542 83 159 0.0 0.0 0.00 0.00 0.00 74 1020.6
20260830232038 84 184 0.0 1.0 0.00 0.00 0.00 72 1020.8
20260830231534 84 184 0.0 0.0 0.00 0.00 0.00 70 1020.6
20260830231033 84 156 0.0 0.0 0.00 0.00 0.00 68 1020.6
20260830230528 84 265 0.0 0.0 0.00 0.00 0.00 68 1020.7
20260830230023 85 265 0.0 0.0 0.00 0.00 0.00 67 1020.5
20260830225518 85 172 0.0 1.0 0.00 0.00 0.00 67 1020.6
20260830225017 85 147 0.0 0.0 0.00 0.00 0.00 66 1020.4
20260830224516 86 299 0.0 0.0 0.00 0.00 0.00 64 1020.5
20260830224013 86 248 2.0 3.0 0.00 0.00 0.00 61 1020.6
20260830223510 86 180 0.0 1.0 0.00 0.00 0.00 63 1020.4
20260830223009 86 254 0.0 2.0 0.00 0.00 0.00 63 1020.4
20260830222504 86 147 1.0 1.0 0.00 0.00 0.00 62 1020.4
20260830222000 87 170 0.0 1.0 0.00 0.00 0.00 61 1020.6
20260830221455 87 274 0.0 1.0 0.00 0.00 0.00 61 1020.5
20260830220945 87 133 1.0 2.0 0.00 0.00 0.00 61 1020.6
20260830220445 87 246 0.0 0.0 0.00 0.00 0.00 62 1020.4
20260830215943 87 192 0.0 1.0 0.00 0.00 0.00 62 1020.5
20260830215438 87 178 0.0 1.0 0.00 0.00 0.00 62 1020.4
20260830214933 87 336 0.0 1.0 0.00 0.00 0.00 62 1020.5
20260830214428 87 242 1.0 2.0 0.00 0.00 0.00 62 1020.5
20260830213922 87 174 0.0 2.0 0.00 0.00 0.00 62 1020.4
20260830213418 87 119 0.0 2.0 0.00 0.00 0.00 61 1020.6
20260830212913 87 254 0.0 1.0 0.00 0.00 0.00 60 1020.4
20260830212409 87 270 2.0 2.0 0.00 0.00 0.00 61 1020.4
20260830211908 87 166 3.0 3.0 0.00 0.00 0.00 60 1020.4
20260830211402 87 159 0.0 2.0 0.00 0.00 0.00 63 1020.4
20260830210858 87 156 0.0 2.0 0.00 0.00 0.00 62 1020.1
20260830210357 87 266 0.0 2.0 0.00 0.00 0.00 62 1020.2
20260830205855 88 79 1.0 2.0 0.00 0.00 0.00 61 1020.3
20260830205354 88 134 1.0 2.0 0.00 0.00 0.00 61 1020.3
20260830204850 87 161 1.0 2.0 0.00 0.00 0.00 62 1020.4
20260830204349 87 268 0.0 2.0 0.00 0.00 0.00 62 1020.4
20260830203844 87 156 0.0 1.0 0.00 0.00 0.00 62 1020.6
20260830203341 87 254 1.0 2.0 0.00 0.00 0.00 62 1020.7
20260830202839 87 225 1.0 2.0 0.00 0.00 0.00 62 1020.4
20260830202335 87 139 0.0 2.0 0.00 0.00 0.00 61 1020.6
20260830201830 87 97 1.0 3.0 0.00 0.00 0.00 62 1020.7
20260830201324 87 329 1.0 2.0 0.00 0.00 0.00 61 1020.8
20260830200820 88 35 2.0 3.0 0.00 0.00 0.00 60 1020.8
20260830200319 88 296 1.0 2.0 0.00 0.00 0.00 58 1020.7
20260830195815 89 285 0.0 1.0 0.00 0.00 0.00 58 1020.7
20260830195315 89 249 0.0 2.0 0.00 0.00 0.00 58 1021.0
20260830194813 89 294 1.0 3.0 0.00 0.00 0.00 58 1021.2
20260830194307 89 255 1.0 2.0 0.00 0.00 0.00 56 1021.1
20260830193802 90 168 2.0 2.0 0.00 0.00 0.00 57 1021.4
20260830193301 90 210 0.0 2.0 0.00 0.00 0.00 56 1021.5
20260830192757 89 312 0.0 1.0 0.00 0.00 0.00 58 1021.6
20260830192252 89 286 2.0 4.0 0.00 0.00 0.00 58 1021.8
20260830191748 88 293 3.0 3.0 0.00 0.00 0.00 61 1021.7
20260830191247 89 315 2.0 4.0 0.00 0.00 0.00 58 1021.6
20260830190743 89 241 0.0 3.0 0.00 0.00 0.00 58 1022.1
20260830190238 89 63 1.0 3.0 0.00 0.00 0.00 61 1021.8
20260830185736 88 334 0.0 2.0 0.00 0.00 0.00 60 1021.9
20260830185232 89 214 6.0 7.0 0.00 0.00 0.00 59 1022.2
20260830184731 88 224 2.0 2.0 0.00 0.00 0.00 59 1022.0
20260830184231 88 324 1.0 2.0 0.00 0.00 0.00 62 1022.2
20260830183726 88 9 0.0 3.0 0.00 0.00 0.00 62 1022.5
20260830183221 88 253 3.0 4.0 0.00 0.00 0.00 61 1022.3
20260830182716 87 153 2.0 3.0 0.00 0.00 0.00 62 1022.5
20260830182212 87 210 1.0 3.0 0.00 0.00 0.00 63 1022.5
20260830181708 86 282 0.0 6.0 0.00 0.00 0.00 64 1022.5
20260830181203 87 172 0.0 1.0 0.00 0.00 0.00 65 1022.6
20260830180701 87 345 0.0 3.0 0.00 0.00 0.00 64 1022.8
20260830180156 87 232 0.0 2.0 0.00 0.00 0.00 66 1022.9
20260830175655 87 299 0.0 3.0 0.00 0.00 0.00 62 1023.0
20260830175150 87 145 3.0 3.0 0.00 0.00 0.00 64 1023.1
20260830174646 86 154 0.0 4.0 0.00 0.00 0.00 65 1023.0
20260830174141 86 345 1.0 3.0 0.00 0.00 0.00 66 1023.1
20260830173636 86 98 1.0 3.0 0.00 0.00 0.00 65 1023.1
20260830173131 86 220 0.0 2.0 0.00 0.00 0.00 65 1023.1
20260830172628 86 143 0.0 2.0 0.00 0.00 0.00 65 1023.3
20260830172124 85 166 0.0 3.0 0.00 0.00 0.00 67 1023.3
20260830171624 85 184 0.0 1.0 0.00 0.00 0.00 67 1023.5
20260830171119 84 233 2.0 3.0 0.00 0.00 0.00 67 1023.5
20260830170614 85 329 1.0 4.0 0.00 0.00 0.00 65 1023.4
20260830170113 86 131 2.0 3.0 0.00 0.00 0.00 67 1023.6
20260830165608 85 235 1.0 4.0 0.00 0.00 0.00 66 1023.5
20260830165103 84 159 0.0 2.0 0.00 0.00 0.00 70 1023.6
20260830164559 84 244 0.0 4.0 0.00 0.00 0.00 69 1023.7
20260830164055 84 149 2.0 2.0 0.00 0.00 0.00 68 1023.6
20260830163552 84 124 0.0 5.0 0.00 0.00 0.00 68 1023.6
20260830163051 83 272 0.0 1.0 0.00 0.00 0.00 71 1023.7
20260830162547 83 157 2.0 3.0 0.00 0.00 0.00 71 1024.0
20260830162042 83 152 0.0 2.0 0.00 0.00 0.00 70 1023.7
20260830161536 83 265 2.0 2.0 0.00 0.00 0.00 71 1024.0
20260830161031 84 197 2.0 3.0 0.00 0.00 0.00 71 1023.9
20260830160528 83 53 1.0 3.0 0.00 0.00 0.00 71 1024.0
20260830160023 83 184 0.0 1.0 0.00 0.00 0.00 72 1024.1
20260830155519 83 142 0.0 2.0 0.00 0.00 0.00 73 1024.2
20260830155014 83 59 0.0 3.0 0.00 0.00 0.00 72 1024.4
20260830154509 83 195 1.0 4.0 0.00 0.00 0.00 71 1024.4
20260830154006 83 140 2.0 3.0 0.00 0.00 0.00 72 1024.2
20260830153502 82 10 0.0 1.0 0.00 0.00 0.00 73 1024.5
20260830153001 82 286 0.0 1.0 0.00 0.00 0.00 75 1024.3
20260830152456 82 3 1.0 2.0 0.00 0.00 0.00 73 1024.4
20260830151955 82 11 2.0 3.0 0.00 0.00 0.00 74 1024.3